Weather Service Report


059 
ASUS44 KMEG 270000
RWRMEG
MEMPHIS CWA HOURLY WEATHER ROUNDUP
NATIONAL WEATHER SERVICE MEMPHIS TN
700 PM CDT MON JUN 26 2017

...WEST TENNESSEE...
  
CITY           SKY/WX    TMP DP  RH WIND       PRES   REMARKS
MEMPHIS INTL   MOSUNNY   83  58  42 NW6       30.06S                  
6HR MIN TEMP:  83; 6HR MAX TEMP:  87;                                

NWS MEMPHIS      N/A     85 N/A N/A MISG        N/A                   
JACKSON        SUNNY     82  57  42 NE3       30.08F                  
6HR MIN TEMP:  77; 6HR MAX TEMP:  84;                                



...EASTERN ARKANSAS...
  
CITY           SKY/WX    TMP DP  RH WIND       PRES   REMARKS
JONESBORO      CLOUDY    81  61  50 E5        30.07S                  
6HR MIN TEMP:  79; 6HR MAX TEMP:  84;                                

WEST MEMPHIS   SUNNY     81  63  54 CALM      30.05S                  
6HR MIN TEMP:  81; 6HR MAX TEMP:  84;                                

BATESVILLE     SUNNY     81  61  50 CALM      30.08S                  
6HR MIN TEMP:  81; 6HR MAX TEMP:  84;                                

WALNUT RIDGE   CLOUDY    79  59  50 N28G33    30.11R                  
6HR MIN TEMP:  79; 6HR MAX TEMP:  82;                                

BLYTHEVILLE    PTSUNNY   80  58  46 NE8       30.09R                  
6HR MIN TEMP:  79; 6HR MAX TEMP:  84;                                

SEARCY         SUNNY     83  62  49 S3        30.08                   
6HR MIN TEMP:  82; 6HR MAX TEMP:  86;                                

STUTTGART      CLOUDY   N/A N/A N/A SE7       30.08R                  
PINE BLUFF     PTSUNNY   77  65  66 NE5       30.07S                  
6HR MIN TEMP:  77; 6HR MAX TEMP:  83;                                

MONTICELLO     CLOUDY    80  66  62 CALM      30.06R                  
6HR MIN TEMP:  80; 6HR MAX TEMP:  86;                                



...NORTH MISSISSIPPI...
  
CITY           SKY/WX    TMP DP  RH WIND       PRES   REMARKS
TUPELO         PTSUNNY   80  58  46 CALM      30.07S                  
6HR MIN TEMP:  77; 6HR MAX TEMP:  83;                                

BATESVILLE     CLOUDY    77  66  69 CALM      30.08S                  
6HR MIN TEMP:  77; 6HR MAX TEMP:  83;                                

OLIVE BRANCH   MOSUNNY  N/A N/A N/A CALM      30.06S                  
TUNICA           N/A     77  63  61 S5        30.07S                  
CLARKSDALE       N/A     79  59  50 CALM      30.07S                  
GREENWOOD      SUNNY     84  61  45 NE5       30.04S                  
6HR MIN TEMP:  84; 6HR MAX TEMP:  88;                                

STARKVILLE     SUNNY     82  59  44 CALM      30.06F                  


...SOUTHEAST MISSOURI...
  
CITY           SKY/WX    TMP DP  RH WIND       PRES   REMARKS
KENNETT        PTSUNNY   75  61  60 N13       30.09R                  
MALDEN         DRIZZLE   70  61  73 N9        30.14R                  
WEST PLAINS    CLOUDY    62  59  90 NE10      30.16F                  
6HR MIN TEMP:  61; 6HR MAX TEMP:  78; 6HR PCP:  0.01;                

POPLAR BLUFF   LGT RAIN  66  63  90 CALM      30.12F                  
6HR MIN TEMP:  66; 6HR MAX TEMP:  79; 6HR PCP:  0.10;                

CAPE GIRARDEAU CLOUDY    70  64  81 S5        30.12S                  
6HR MIN TEMP:  70; 6HR MAX TEMP:  79; 6HR PCP: TRACE;                



...NORTHWEST ALABAMA...
  
CITY           SKY/WX    TMP DP  RH WIND       PRES   REMARKS
MUSCLE SHOALS  CLOUDY    80  58  46 E3        30.08S                  
6HR MIN TEMP:  79; 6HR MAX TEMP:  86;                                



...MIDDLE TENNESSEE...
  
CITY           SKY/WX    TMP DP  RH WIND       PRES   REMARKS
NASHVILLE      MOSUNNY   79  49  34 N8        30.09S                  
6HR MIN TEMP:  78; 6HR MAX TEMP:  83;                                

CLARKSVILLE    CLOUDY    73  51  46 N7        30.10S                  
6HR MIN TEMP:  73; 6HR MAX TEMP:  80;                                



...WESTERN KENTUCKY...
  
CITY           SKY/WX    TMP DP  RH WIND       PRES   REMARKS
PADUCAH        CLOUDY    74  55  51 W5        30.11R                  
6HR MIN TEMP:  74; 6HR MAX TEMP:  81;                                

FORT CAMPBELL  CLOUDY    74  49  41 N5        30.10S                  
6HR MIN TEMP:  74; 6HR MAX TEMP:  78;                                



...CENTRAL ARKANSAS...
  
CITY           SKY/WX    TMP DP  RH WIND       PRES   REMARKS
LITTLE ROCK    PTSUNNY   80  61  52 SE5       30.07S                  
6HR MIN TEMP:  80; 6HR MAX TEMP:  84;                                



SKY/WX REPORTED AS FAIR MEANS FEW OR NO CLOUDS BELOW
12 THOUSAND FEET.

  


288 
ASUS44 KMEG 270000
RWRTN 
TENNESSEE HOURLY STATE WEATHER ROUNDUP
NATIONAL WEATHER SERVICE MEMPHIS TN
700 PM CDT MON JUN 26 2017

TNZ002-004-019-021-049-052-054-088>092-270100-
WEST TENNESSEE
  
CITY           SKY/WX    TMP DP  RH WIND       PRES   REMARKS
MEMPHIS INTL   MOSUNNY   83  58  42 NW6       30.06S                  
NWS MEMPHIS      N/A     85 N/A N/A MISG        N/A                   
JACKSON        SUNNY     82  57  42 NE3       30.08F                  
$$

TNZ008-025-027-028-033-062-065-066-270100-
NORTH MIDDLE TENNESSEE
  
CITY           SKY/WX    TMP DP  RH WIND       PRES   REMARKS
NASHVILLE      MOSUNNY   79  49  34 N8        30.09S                  
CLARKSVILLE    CLOUDY    73  51  46 N7        30.10S                  
SMYRNA         MOSUNNY   78  54  43 N5        30.10S                  
CROSSVILLE     MOSUNNY   72  52  49 N5        30.14S                  
$$

TNZ061-075-076-078-094-096-097-270100-
SOUTH MIDDLE TENNESSEE
  
CITY           SKY/WX    TMP DP  RH WIND       PRES   REMARKS
MCMINNVILLE    SUNNY     75  57  53 N5        30.10F                  
$$

TNZ017-018-042-046-047-270100-
NORTHEAST TENNESSEE
  
CITY           SKY/WX    TMP DP  RH WIND       PRES   REMARKS
TRI CITIES     PTCLDY    73  56  54 SW10      30.09S                  
$$

TNZ012-013-036-069-073-074-270100-
CENTRAL EAST TENNESSEE
  
CITY           SKY/WX    TMP DP  RH WIND       PRES   REMARKS
KNOXVILLE      NOT AVBL                                               
OAK RIDGE      CLEAR     79  49  34 W5        30.10S                  
GATLINBURG     CLEAR     75  54  46 W3        30.08S                  
$$

TNZ083-085-099-270100-
SOUTHEAST TENNESSEE
  
CITY           SKY/WX    TMP DP  RH WIND       PRES   REMARKS
CHATTANOOGA    MOSUNNY   80  55  42 NW5       30.08S                  
$$

SKY/WX REPORTED AS FAIR MEANS FEW OR NO CLOUDS BELOW
12 THOUSAND FEET.

  

Return to Home page


Western Regional Climate Center, wrcc@dri.edu